QPF
0.05 0.05 0.04 0.03 0.04 0.04 0.05 0.06 0.05 0.05 0.06 0.05 0.03 0.03 0.03 0.03 0.03 0.03 0.04 0.04 0.03 0.02 0.01 0.01 0.01 0.01 0.00 0.01 0.01 0.02 0.02 0.02 0.02 0.02 0.03 0.03 0.03 0.02
0.04 0.05 0.04 0.03 0.03 0.03 0.03 0.03 0.04 0.04 0.07 0.06 0.06 0.05 0.03 0.02 0.03 0.03 0.03 0.03 0.02 0.01 0.01 0.01 0.01 0.01 0.01 0.01 0.01 0.01 0.01 0.01 0.01 0.01 0.02 0.03 0.03 0.03
0.03 0.03 0.03 0.04 0.04 0.02 0.02 0.02 0.02 0.03 0.04 0.03 0.04 0.04 0.03 0.03 0.03 0.02 0.03 0.03 0.03 0.01 0.01 0.01 0.01 0.01 0.01 0.01 0.01 0.01 0.01 0.00 0.00 0.00 0.01 0.02 0.02 0.03
0.04 0.05 0.05 0.05 0.04 0.03 0.03 0.03 0.03 0.04 0.04 0.04 0.04 0.04 0.04 0.04 0.03 0.03 0.02 0.02 0.02 0.02 0.02 0.01 0.01 0.01 0.01 0.01 0.01 0.00 0.00 0.00 0.00 0.00 0.00 0.01 0.01 0.02
0.05 0.05 0.05 0.05 0.04 0.03 0.03 0.03 0.03 0.04 0.06 0.06 0.04 0.04 0.04 0.04 0.05 0.04 0.03 0.03 0.02 0.02 0.02 0.01 0.01 0.01 0.01 0.01 0.00 0.00 0.00 0.00 0.00 0.00 0.00 0.00 0.01 0.01
0.05 0.04 0.04 0.05 0.04 0.03 0.03 0.03 0.03 0.04 0.06 0.06 0.04 0.04 0.05 0.04 0.05 0.05 0.05 0.06 0.05 0.03 0.02 0.02 0.01 0.01 0.01 0.01 0.00 0.00 0.00 0.00 0.00 0.00 0.00 0.00 0.00 0.01
0.05 0.04 0.04 0.05 0.05 0.04 0.03 0.04 0.04 0.05 0.05 0.05 0.04 0.05 0.05 0.05 0.05 0.05 0.06 0.07 0.08 0.07 0.05 0.03 0.02 0.02 0.02 0.01 0.01 0.00 0.00 0.00 0.00 0.00 0.00 0.00 0.00 0.00
0.07 0.07 0.06 0.05 0.04 0.03 0.02 0.02 0.02 0.03 0.04 0.06 0.06 0.05 0.06 0.05 0.04 0.05 0.06 0.07 0.06 0.06 0.05 0.03 0.02 0.02 0.02 0.02 0.02 0.01 0.01 0.01 0.01 0.01 0.01 0.01 0.01 0.01
0.06 0.08 0.07 0.06 0.05 0.03 0.03 0.02 0.01 0.01 0.02 0.03 0.05 0.06 0.07 0.05 0.05 0.05 0.05 0.06 0.05 0.06 0.05 0.04 0.03 0.02 0.02 0.02 0.03 0.02 0.02 0.01 0.01 0.01 0.00 0.00 0.01 0.01
0.04 0.05 0.06 0.06 0.05 0.04 0.03 0.02 0.02 0.02 0.01 0.02 0.02 0.04 0.06 0.05 0.04 0.04 0.06 0.07 0.07 0.08 0.09 0.07 0.05 0.03 0.02 0.02 0.02 0.02 0.02 0.02 0.01 0.01 0.01 0.00 0.00 0.01
0.03 0.04 0.05 0.06 0.07 0.04 0.03 0.03 0.02 0.02 0.01 0.01 0.01 0.02 0.03 0.04 0.04 0.03 0.04 0.06 0.06 0.07 0.08 0.10 0.08 0.05 0.03 0.02 0.02 0.02 0.02 0.02 0.01 0.01 0.01 0.01 0.01 0.01
0.05 0.05 0.06 0.05 0.05 0.02 0.03 0.04 0.03 0.03 0.03 0.02 0.02 0.02 0.02 0.02 0.03 0.03 0.04 0.04 0.05 0.05 0.04 0.04 0.05 0.07 0.05 0.03 0.02 0.02 0.02 0.02 0.02 0.01 0.01 0.01 0.01 0.02
0.05 0.05 0.05 0.03 0.02 0.02 0.02 0.03 0.03 0.03 0.04 0.04 0.04 0.03 0.03 0.03 0.03 0.03 0.04 0.05 0.05 0.05 0.04 0.04 0.04 0.05 0.05 0.03 0.02 0.02 0.03 0.03 0.03 0.03 0.03 0.02 0.02 0.02
0.04 0.04 0.05 0.03 0.02 0.02 0.02 0.02 0.01 0.02 0.03 0.03 0.03 0.03 0.03 0.03 0.03 0.03 0.03 0.03 0.04 0.03 0.02 0.03 0.04 0.05 0.05 0.03 0.03 0.02 0.03 0.05 0.06 0.05 0.04 0.03 0.02 0.02
0.02 0.02 0.03 0.02 0.01 0.01 0.02 0.01 0.01 0.01 0.02 0.02 0.03 0.03 0.03 0.03 0.03 0.03 0.04 0.03 0.03 0.02 0.01 0.02 0.02 0.03 0.05 0.04 0.03 0.03 0.04 0.05 0.07 0.07 0.04 0.04 0.03 0.02
0.02 0.01 0.02 0.01 0.01 0.01 0.01 0.01 0.01 0.01 0.02 0.03 0.04 0.05 0.05 0.05 0.04 0.03 0.04 0.04 0.03 0.03 0.02 0.02 0.02 0.02 0.04 0.04 0.04 0.05 0.05 0.05 0.05 0.05 0.04 0.03 0.02 0.02
0.02 0.02 0.01 0.01 0.01 0.01 0.02 0.02 0.02 0.02 0.03 0.05 0.05 0.05 0.07 0.06 0.05 0.05 0.04 0.04 0.04 0.03 0.02 0.02 0.02 0.02 0.03 0.04 0.04 0.04 0.05 0.05 0.05 0.04 0.05 0.04 0.03 0.02
0.02 0.02 0.02 0.02 0.02 0.02 0.02 0.02 0.02 0.03 0.04 0.07 0.06 0.05 0.06 0.06 0.06 0.05 0.05 0.06 0.05 0.03 0.03 0.03 0.03 0.03 0.03 0.03 0.03 0.03 0.03 0.03 0.03 0.04 0.05 0.06 0.05 0.04
0.02 0.02 0.02 0.03 0.03 0.03 0.03 0.03 0.05 0.05 0.06 0.09 0.07 0.05 0.05 0.05 0.05 0.04 0.04 0.04 0.05 0.04 0.04 0.04 0.05 0.05 0.05 0.04 0.03 0.03 0.03 0.03 0.03 0.04 0.04 0.04 0.04 0.04
0.04 0.04 0.04 0.04 0.04 0.04 0.04 0.04 0.05 0.05 0.06 0.09 0.07 0.05 0.05 0.04 0.03 0.03 0.03 0.04 0.05 0.05 0.06 0.06 0.06 0.05 0.04 0.03 0.03 0.03 0.03 0.04 0.04 0.05 0.05 0.04 0.04 0.04
0.07 0.06 0.06 0.07 0.07 0.06 0.06 0.06 0.05 0.05 0.06 0.05 0.04 0.04 0.05 0.04 0.04 0.04 0.05 0.04 0.05 0.06 0.05 0.05 0.04 0.03 0.03 0.04 0.04 0.03 0.03 0.03 0.03 0.04 0.04 0.04 0.04 0.05
0.08 0.07 0.07 0.07 0.07 0.06 0.06 0.07 0.06 0.06 0.07 0.05 0.03 0.03 0.03 0.03 0.03 0.03 0.04 0.04 0.03 0.03 0.03 0.04 0.04 0.05 0.06 0.05 0.05 0.04 0.03 0.03 0.02 0.02 0.02 0.03 0.03 0.03
0.05 0.05 0.05 0.05 0.04 0.05 0.05 0.05 0.05 0.05 0.05 0.04 0.03 0.02 0.02 0.02 0.02 0.02 0.02 0.03 0.03 0.03 0.02 0.03 0.04 0.05 0.05 0.04 0.04 0.03 0.03 0.03 0.03 0.02 0.02 0.02 0.02 0.02
MSLP
1012.88 1013.15 1013.49 1013.90 1014.36 1014.83 1015.28 1015.67 1016.00 1016.24 1016.41 1016.51 1016.59 1016.67 1016.78 1016.95 1017.18 1017.46 1017.78 1018.08 1018.35 1018.55 1018.66 1018.67 1018.61 1018.48 1018.34 1018.20 1018.11 1018.09 1018.12 1018.21 1018.32 1018.41 1018.47 1018.47 1018.39 1018.25
1012.78 1013.00 1013.29 1013.63 1014.03 1014.47 1014.90 1015.30 1015.66 1015.95 1016.17 1016.35 1016.48 1016.62 1016.77 1016.95 1017.18 1017.45 1017.75 1018.04 1018.30 1018.50 1018.62 1018.66 1018.63 1018.55 1018.45 1018.36 1018.30 1018.30 1018.34 1018.42 1018.51 1018.57 1018.58 1018.51 1018.36 1018.14
1012.78 1012.96 1013.19 1013.48 1013.82 1014.20 1014.60 1015.01 1015.38 1015.71 1015.98 1016.22 1016.41 1016.59 1016.77 1016.97 1017.19 1017.45 1017.73 1018.00 1018.26 1018.46 1018.60 1018.67 1018.69 1018.66 1018.61 1018.56 1018.54 1018.55 1018.60 1018.67 1018.73 1018.76 1018.73 1018.61 1018.41 1018.13
1012.78 1012.94 1013.13 1013.37 1013.66 1014.00 1014.37 1014.76 1015.14 1015.50 1015.82 1016.10 1016.34 1016.55 1016.75 1016.96 1017.19 1017.43 1017.69 1017.96 1018.20 1018.42 1018.58 1018.70 1018.76 1018.78 1018.78 1018.77 1018.78 1018.82 1018.87 1018.93 1018.97 1018.97 1018.91 1018.77 1018.54 1018.24
1012.73 1012.89 1013.06 1013.26 1013.51 1013.82 1014.16 1014.54 1014.93 1015.31 1015.66 1015.97 1016.25 1016.49 1016.71 1016.92 1017.14 1017.37 1017.62 1017.87 1018.12 1018.35 1018.55 1018.70 1018.81 1018.89 1018.93 1018.97 1019.01 1019.05 1019.11 1019.16 1019.19 1019.18 1019.10 1018.96 1018.73 1018.44
1012.59 1012.76 1012.93 1013.12 1013.35 1013.64 1013.97 1014.34 1014.73 1015.12 1015.49 1015.82 1016.11 1016.37 1016.59 1016.80 1017.02 1017.24 1017.48 1017.73 1017.99 1018.24 1018.47 1018.67 1018.83 1018.95 1019.05 1019.12 1019.18 1019.24 1019.29 1019.33 1019.35 1019.33 1019.26 1019.12 1018.92 1018.66
1012.35 1012.55 1012.74 1012.94 1013.17 1013.45 1013.78 1014.14 1014.53 1014.92 1015.29 1015.63 1015.93 1016.18 1016.40 1016.60 1016.81 1017.02 1017.25 1017.51 1017.78 1018.06 1018.33 1018.57 1018.78 1018.96 1019.09 1019.20 1019.28 1019.34 1019.39 1019.42 1019.43 1019.41 1019.34 1019.23 1019.07 1018.86
1012.02 1012.28 1012.50 1012.72 1012.97 1013.26 1013.58 1013.95 1014.33 1014.71 1015.08 1015.41 1015.69 1015.93 1016.14 1016.33 1016.51 1016.72 1016.95 1017.21 1017.50 1017.80 1018.11 1018.40 1018.65 1018.87 1019.04 1019.18 1019.27 1019.34 1019.38 1019.40 1019.40 1019.37 1019.32 1019.23 1019.11 1018.96
1011.64 1011.95 1012.22 1012.49 1012.77 1013.07 1013.40 1013.76 1014.13 1014.49 1014.84 1015.14 1015.40 1015.62 1015.80 1015.97 1016.15 1016.34 1016.57 1016.84 1017.15 1017.48 1017.82 1018.15 1018.45 1018.70 1018.91 1019.06 1019.17 1019.23 1019.27 1019.27 1019.26 1019.23 1019.18 1019.11 1019.03 1018.92
1011.22 1011.59 1011.91 1012.23 1012.54 1012.86 1013.21 1013.56 1013.92 1014.26 1014.58 1014.85 1015.07 1015.26 1015.42 1015.57 1015.73 1015.92 1016.16 1016.44 1016.76 1017.12 1017.48 1017.84 1018.18 1018.46 1018.70 1018.87 1018.98 1019.04 1019.07 1019.07 1019.04 1019.01 1018.96 1018.91 1018.84 1018.78
1010.74 1011.16 1011.54 1011.91 1012.26 1012.62 1012.97 1013.33 1013.67 1013.99 1014.28 1014.52 1014.72 1014.88 1015.02 1015.16 1015.31 1015.50 1015.74 1016.03 1016.37 1016.74 1017.14 1017.52 1017.88 1018.18 1018.43 1018.62 1018.74 1018.82 1018.84 1018.83 1018.80 1018.76 1018.71 1018.67 1018.62 1018.59
1010.17 1010.63 1011.07 1011.48 1011.88 1012.27 1012.65 1013.02 1013.35 1013.66 1013.93 1014.16 1014.34 1014.49 1014.62 1014.76 1014.92 1015.12 1015.37 1015.67 1016.02 1016.41 1016.81 1017.21 1017.58 1017.90 1018.17 1018.37 1018.51 1018.59 1018.62 1018.62 1018.59 1018.55 1018.51 1018.47 1018.44 1018.42
1009.48 1009.97 1010.45 1010.91 1011.35 1011.78 1012.20 1012.58 1012.94 1013.25 1013.53 1013.75 1013.94 1014.10 1014.25 1014.41 1014.59 1014.80 1015.07 1015.39 1015.75 1016.15 1016.55 1016.95 1017.33 1017.66 1017.93 1018.15 1018.30 1018.40 1018.46 1018.47 1018.46 1018.44 1018.41 1018.38 1018.36 1018.34
1008.67 1009.17 1009.67 1010.17 1010.66 1011.14 1011.60 1012.03 1012.41 1012.76 1013.06 1013.32 1013.54 1013.74 1013.93 1014.12 1014.34 1014.59 1014.89 1015.22 1015.60 1015.99 1016.40 1016.79 1017.16 1017.49 1017.77 1018.00 1018.17 1018.30 1018.38 1018.43 1018.45 1018.45 1018.44 1018.42 1018.41 1018.40
1007.79 1008.28 1008.80 1009.33 1009.86 1010.40 1010.91 1011.39 1011.83 1012.23 1012.59 1012.90 1013.18 1013.44 1013.69 1013.94 1014.22 1014.52 1014.84 1015.20 1015.58 1015.98 1016.37 1016.75 1017.11 1017.43 1017.71 1017.95 1018.14 1018.29 1018.41 1018.49 1018.55 1018.58 1018.59 1018.59 1018.58 1018.57
1006.97 1007.43 1007.95 1008.50 1009.07 1009.65 1010.22 1010.77 1011.28 1011.74 1012.17 1012.56 1012.91 1013.25 1013.57 1013.90 1014.24 1014.59 1014.96 1015.34 1015.73 1016.12 1016.50 1016.86 1017.20 1017.51 1017.78 1018.02 1018.22 1018.39 1018.53 1018.65 1018.73 1018.79 1018.82 1018.83 1018.81 1018.79
1006.37 1006.79 1007.29 1007.85 1008.46 1009.08 1009.70 1010.30 1010.88 1011.41 1011.91 1012.38 1012.81 1013.23 1013.63 1014.03 1014.43 1014.84 1015.25 1015.66 1016.05 1016.44 1016.80 1017.14 1017.45 1017.73 1017.98 1018.21 1018.41 1018.59 1018.74 1018.87 1018.96 1019.03 1019.06 1019.05 1019.03 1018.97
1006.20 1006.57 1007.04 1007.60 1008.22 1008.86 1009.52 1010.16 1010.78 1011.37 1011.93 1012.45 1012.95 1013.43 1013.90 1014.37 1014.83 1015.28 1015.72 1016.14 1016.55 1016.92 1017.27 1017.58 1017.85 1018.10 1018.32 1018.52 1018.70 1018.86 1018.99 1019.10 1019.18 1019.23 1019.23 1019.20 1019.13 1019.03
1006.58 1006.91 1007.35 1007.89 1008.49 1009.13 1009.79 1010.45 1011.09 1011.70 1012.28 1012.84 1013.38 1013.90 1014.41 1014.91 1015.40 1015.88 1016.34 1016.78 1017.18 1017.54 1017.86 1018.14 1018.38 1018.59 1018.77 1018.92 1019.05 1019.16 1019.26 1019.32 1019.35 1019.35 1019.30 1019.22 1019.08 1018.92
1007.57 1007.85 1008.26 1008.76 1009.33 1009.95 1010.58 1011.22 1011.83 1012.43 1013.00 1013.55 1014.08 1014.60 1015.12 1015.63 1016.12 1016.61 1017.07 1017.51 1017.90 1018.24 1018.54 1018.78 1018.98 1019.14 1019.27 1019.36 1019.43 1019.48 1019.50 1019.49 1019.45 1019.37 1019.25 1019.09 1018.88 1018.64
1009.09 1009.34 1009.71 1010.17 1010.69 1011.26 1011.83 1012.41 1012.97 1013.51 1014.03 1014.53 1015.02 1015.50 1015.98 1016.47 1016.94 1017.41 1017.85 1018.27 1018.64 1018.96 1019.22 1019.44 1019.59 1019.70 1019.77 1019.79 1019.79 1019.75 1019.69 1019.59 1019.47 1019.30 1019.09 1018.84 1018.56 1018.24
1010.97 1011.21 1011.54 1011.95 1012.41 1012.90 1013.40 1013.90 1014.37 1014.83 1015.26 1015.68 1016.09 1016.51 1016.93 1017.35 1017.78 1018.20 1018.60 1018.98 1019.32 1019.61 1019.84 1020.02 1020.13 1020.19 1020.19 1020.15 1020.07 1019.96 1019.81 1019.62 1019.41 1019.16 1018.87 1018.55 1018.20 1017.83
1012.97 1013.20 1013.50 1013.86 1014.27 1014.68 1015.10 1015.50 1015.88 1016.23 1016.57 1016.89 1017.20 1017.52 1017.85 1018.19 1018.54 1018.90 1019.24 1019.57 1019.87 1020.12 1020.31 1020.45 1020.52 1020.53 1020.48 1020.39 1020.24 1020.06 1019.84 1019.58 1019.30 1018.98 1018.64 1018.27 1017.88 1017.47
Thickness
5718 5717 5716 5717 5717 5717 5715 5712 5705 5699 5700 5705 5706 5710 5710 5709 5707 5706 5706 5704 5703 5701 5701 5700 5698 5697 5696 5695 5694 5693 5691 5690 5688 5687 5686 5685 5684 5683
5715 5714 5713 5714 5714 5714 5713 5712 5709 5703 5698 5701 5702 5704 5705 5705 5704 5702 5701 5700 5699 5698 5698 5697 5695 5694 5693 5692 5690 5689 5688 5686 5685 5683 5682 5681 5681 5680
5712 5711 5709 5710 5709 5710 5709 5708 5706 5703 5697 5697 5699 5700 5700 5699 5699 5698 5698 5697 5695 5695 5695 5694 5692 5691 5689 5688 5687 5685 5684 5682 5681 5680 5678 5678 5677 5676
5708 5707 5706 5706 5704 5704 5703 5702 5701 5700 5696 5692 5693 5694 5695 5695 5695 5694 5695 5694 5693 5692 5692 5690 5689 5687 5685 5684 5683 5681 5680 5678 5677 5676 5674 5673 5672 5672
5705 5703 5702 5701 5699 5699 5698 5697 5696 5696 5694 5690 5689 5690 5690 5690 5690 5690 5690 5690 5690 5689 5687 5686 5684 5683 5682 5680 5679 5678 5676 5674 5673 5671 5669 5668 5667 5666
5702 5700 5698 5697 5695 5694 5693 5692 5691 5689 5688 5686 5685 5684 5684 5686 5684 5683 5682 5683 5684 5684 5683 5681 5680 5679 5678 5676 5675 5673 5671 5670 5668 5666 5665 5663 5662 5661
5696 5695 5694 5692 5691 5689 5688 5686 5685 5683 5682 5680 5678 5678 5677 5677 5676 5677 5676 5677 5678 5679 5677 5676 5675 5674 5673 5672 5670 5669 5667 5665 5663 5661 5659 5658 5657 5656
5689 5689 5688 5687 5686 5684 5683 5681 5680 5677 5675 5674 5673 5671 5671 5672 5672 5671 5670 5669 5667 5672 5671 5670 5671 5669 5670 5668 5666 5665 5663 5661 5659 5657 5655 5653 5651 5650
5684 5683 5683 5683 5680 5679 5677 5676 5674 5673 5672 5670 5668 5667 5666 5667 5667 5665 5664 5663 5663 5666 5665 5664 5665 5664 5665 5664 5662 5660 5658 5656 5654 5652 5650 5648 5647 5645
5679 5678 5677 5675 5674 5672 5672 5670 5669 5668 5667 5666 5665 5664 5664 5664 5663 5661 5660 5659 5660 5661 5661 5657 5659 5658 5659 5657 5656 5655 5654 5651 5649 5647 5645 5644 5642 5641
5674 5673 5672 5669 5667 5666 5665 5664 5663 5662 5662 5661 5661 5660 5659 5658 5657 5655 5653 5651 5650 5653 5654 5652 5652 5651 5651 5650 5650 5649 5648 5646 5644 5642 5641 5639 5637 5636
5668 5667 5666 5664 5661 5659 5658 5657 5655 5655 5655 5654 5654 5654 5654 5653 5652 5649 5648 5645 5644 5644 5647 5645 5645 5643 5642 5644 5643 5642 5640 5639 5638 5637 5635 5634 5632 5629
5661 5661 5660 5657 5655 5653 5651 5650 5649 5648 5648 5647 5647 5648 5649 5648 5647 5646 5644 5641 5639 5638 5640 5639 5637 5636 5634 5635 5635 5635 5634 5633 5631 5630 5629 5628 5626 5624
5654 5654 5652 5651 5649 5647 5645 5644 5643 5642 5642 5641 5641 5642 5642 5642 5641 5640 5639 5637 5636 5634 5633 5632 5630 5629 5627 5625 5626 5627 5627 5627 5626 5625 5623 5622 5620 5619
5647 5646 5645 5643 5642 5640 5639 5638 5637 5636 5636 5635 5635 5636 5637 5637 5636 5634 5633 5631 5629 5628 5627 5625 5624 5623 5621 5619 5619 5620 5619 5620 5620 5618 5617 5615 5615 5613
5638 5637 5637 5637 5636 5635 5634 5633 5631 5631 5631 5629 5629 5630 5630 5629 5627 5626 5624 5622 5620 5619 5619 5618 5616 5615 5613 5613 5613 5612 5612 5611 5611 5610 5609 5608 5608 5607
5629 5629 5630 5630 5630 5630 5629 5628 5627 5625 5624 5623 5622 5621 5621 5620 5619 5618 5616 5614 5612 5610 5609 5609 5608 5607 5606 5605 5604 5605 5604 5604 5603 5602 5600 5600 5600 5600
5621 5623 5624 5624 5623 5623 5622 5621 5619 5618 5617 5616 5615 5614 5612 5611 5609 5609 5607 5605 5603 5602 5601 5600 5599 5598 5597 5597 5596 5596 5596 5596 5595 5595 5593 5592 5592 5592
5615 5617 5618 5618 5617 5617 5616 5613 5611 5610 5610 5608 5606 5605 5604 5602 5600 5598 5598 5597 5595 5593 5593 5593 5591 5590 5587 5587 5589 5589 5588 5588 5588 5587 5587 5586 5586 5586
5611 5612 5612 5612 5611 5610 5608 5606 5604 5603 5602 5601 5599 5598 5596 5594 5592 5591 5589 5588 5587 5585 5585 5585 5584 5583 5582 5581 5581 5582 5582 5581 5579 5579 5579 5579 5579 5579
5607 5607 5607 5606 5605 5603 5601 5599 5597 5596 5594 5593 5591 5590 5588 5586 5584 5583 5582 5580 5579 5579 5578 5578 5578 5578 5578 5576 5574 5575 5575 5573 5573 5571 5571 5571 5571 5572
5601 5600 5599 5598 5597 5596 5594 5593 5591 5589 5587 5585 5583 5582 5581 5579 5577 5576 5576 5574 5573 5573 5572 5572 5572 5572 5570 5568 5567 5567 5567 5566 5566 5565 5564 5564 5563 5563
5594 5594 5592 5591 5589 5588 5586 5585 5583 5580 5578 5577 5575 5574 5574 5572 5571 5570 5570 5569 5568 5567 5566 5565 5564 5563 5562 5561 5560 5560 5560 5559 5558 5557 5557 5558 5557 5557